Location: Peebles
(55.6412°N, 3.1714°W)
Time: 14:49:31
(UTC+01:00)

CZ-4B R/B - Pass Details

Date: 26 September 2021
Orbit: 383 x 448 km, 97.6° (Epoch: 18 October)

Event Time Altitude Azimuth Distance (km) Brightness Sun altitude
Rises 20:31:55 0° 16° (NNE) 2,299 5.0 -13.5°
Reaches altitude 10° 20:33:53 10° 19° (NNE) 1,444 4.0 -13.8°
Maximum altitude 20:36:57 69° 104° (ESE) 432 1.0 -14.2°
Drops below altitude 10° 20:40:03 10° 188° (S) 1,460 3.9 -14.6°
Sets 20:42:03 0° 191° (S) 2,327 4.9 -14.9°
